Location: Bemmer
(51.5498°N, 5.6249°E)
Time: 03:08:54
(UTC+00:00)

Cosmos 1844 Rocket - Pass Details

Date: 03 March 2021
Orbit: 826 x 843 km, 71.0° (Epoch: 13 April)

Event Time Altitude Azimuth Distance (km) Brightness Sun altitude
Rises 18:20:32 0° 330° (NNW) 3,378 6.3 -10.0°
Reaches altitude 10° 18:23:00 10° 332° (NNW) 2,440 5.5 -10.3°
Maximum altitude 18:28:35 74° 58° (ENE) 863 2.6 -11.2°
Drops below altitude 10° 18:34:09 10° 144° (SE) 2,426 4.7 -12.1°
Enters shadow 18:36:01 - 145° (SE) 3,138 5.3 -12.4°
